NADEZHDA 5

Satellite information

Favourite Embed

Satellite Type and Status

PAYLOADIN ORBIT

Key statistics

Satellite NADEZHDA 5 at a glance.

Uptime

9866

Days in orbit

Revolutions

≈ 13.7

Per day

Orbit

LEO

Low Earth Orbit

Inclination

82.9

Latest

Satellite identification and parameters

Extended collection of information and parameters for NADEZHDA 5.

Object identification

Identified? True

Debris? False

Object name: NADEZHDA 5

International designator: 1998-072A

Object number (NORAD): 25567

Object ID (CCSDS): 25567

Country: COMMONWEALTH OF INDEPENDENT STATES (CIS)

Current information (Y/N): Y

RCS size: LARGE

Orbital parameters

Period: 104.951 minutes

Inclination: 82.9478 deg

SMA: 7370.304 km

Apoapsis: 1010.233 km

Periapsis: 974.105 km

RAAN: 224.5326 deg

Eccentricy: 0.00245093

Argument of periapsis: 262.3497 deg

Mean anomaly: 152.2157 deg

Mean motion: 13.72064884 rev/day

Mean motion (dot): 0.00000072 rev/day2

B* drag term: 0.000063227897 1/REarth

Two-line elements (TLE)

Creation date: Dec. 14, 2025, 3:07 a.m.

Reference frame: TEME

Reference center: EARTH

Epoch: Dec. 13, 2025, 4:47 p.m. UTC

TLE line 0: 0 NADEZHDA 5

TLE line 1: 1 25567U 98072A 25347.69966064 .00000072 00000-0 63228-4 0 9992

TLE line 2: 2 25567 82.9478 224.5326 0024509 262.3497 152.2157 13.72064884352233

Live tracking on map

Real-time ground track for satellite NADEZHDA 5.

In-orbit conjunctions

A list of the most updated potential collisions computed for object NADEZHDA 5.

Target Orbit TCA Probability of collision Miss distance Type
COSMOS 489 LEO 2024-06-05 17:03:03 0.00052135 53.0 (m) PAYLOAD

Associated space launch

Civilian navigation satellite equivalent to the purely military Parus

NADEZHDA 5 was lifted into orbit during the mission ‘Kosmos-3M | Nadezhda 8’, on board a Kosmos-3M space rocket.

The launch took place on Dec. 10, 1998, 11:57 a.m. from 132/1 (132L).

For more information about the launch, click the button.

Launch to space Kosmos-3M | Nadezhda 8
Kosmos-3M | Nadezhda 8

Agency: N/A

Status: Launch Successful

Launch date: Dec. 10, 1998, 11:57 a.m. UTC

Rocket: Kosmos-3M

Launch pad: 132/1 (132L)

Location: Plesetsk Cosmodrome, Russian Federation

...

Latest news about this satellite

There are no fresh news available about this satellite. Check back as we update our databases every day.


Newsletter sign-up

Weekly statistics, charts and insights to help you stay on top of the space industry.